{"data":{"norad_id":62860,"intl_designator":"2025-022G","name":"STARLINK-32831","alt_names":[],"object_type":"PAYLOAD","status":"ACTIVE","operator":null,"country":"US","launch_date":"2025-02-01","launch_site_code":"AFWTR","launch_vehicle":null,"mission":null,"orbit_class":"UNKNOWN","rcs_meters":null,"size_class":null,"mass_kg":null,"dimensions":null,"purposes":["comms"],"wikipedia_slug":null,"has_3d_model":false,"image_url":null,"decayed_at":null,"tle_current":{"epoch":"2026-09-21T09:47:43.137888Z","epoch_age_seconds":90167,"freshness":"FRESH","line1":"1 62860U 25022G   26264.40813817  .00005484  00000+0  17336-3 0  9998","line2":"2 62860  53.1607 297.1079 0001044  86.6079 273.5043 15.34393347 91901","mean_motion":15.34393347,"eccentricity":0.0001044,"inclination_deg":53.1607,"raan_deg":297.1079,"arg_perigee_deg":86.6079,"mean_anomaly_deg":273.5043,"bstar":0.00017336,"rev_number":9190,"period_min":93.84816499729,"perigee_km":462.00882861111,"apogee_km":463.43720018211,"semimajor_km":6840.8600143966,"source":"CELESTRAK","updated_at":"2026-09-22T09:00:49.676744Z"}}}